Weather History for KMSV - January, 2014

Change the Weather History Date:

Sunday, January 26, 2014

  Actual Average Record
Temperature  
Mean Temperature 10 °F -  
Max Temperature 17 °F 27 °F 46 °F (2002)
Min Temperature 3 °F 13 °F -2 °F (2007)
Degree Days  
Heating Degree Days 55    
Moisture  
Dew Point 0 °F    
Average Humidity 63    
Maximum Humidity 79    
Minimum Humidity 45    
Precipitation  
Precipitation 0.01 in - - ()
Snow  
Snow 0.00 in - - ()
Snow Depth 5.00 in    
Sea Level Pressure  
Sea Level Pressure 29.66 in    
Wind  
Wind Speed 10 mph (WSW)    
Max Wind Speed 17 mph    
Max Gust Speed 24 mph    
Visibility 9 miles    
Events      
Averages and records for this station are not official NWS values.
T = Trace of Precipitation, MM = Missing Value Source: NWS Daily Summary

Daily Weather History Graph

Daily Weather History Graph

Search for Another Location

Airport or City:

Trip Planner

Search our weather history database for the weather conditions in past years. The results will help you decide how hot, cold, wet, or windy it might be!

Date:

Astronomy

Jan. 26, 2014 Rise Set
Actual Time 7:16 AM EST 5:07 PM EST
Civil Twilight 6:46 AM EST 5:37 PM EST
Nautical Twilight 6:13 AM EST 6:10 PM EST
Astronomical Twilight 5:40 AM EST 6:43 PM EST
Moon 2:51 AM EST (1/26) 12:53 PM EST (1/26)
Length of Visible Light 10h 50m
Length of Day
9h 50m
Waning Crescent, 24% of the Moon is Illuminated
Jan 26
Waning Crescent
Jan 30
New
Feb 6
First Quarter
Feb 14
Full
Feb 22
Last Quarter

Hourly Weather History & Observations

Time (EST) Temp. Windchill Dew Point Humidity Pressure Visibility Wind Dir Wind Speed Gust Speed Precip Events Conditions
12:15 AM 15.8 °F 2.7 °F 8.6 °F 73% 29.40 in 3.0 mi WNW 11.5 mph - 0.01 in   Overcast
12:35 AM 14.0 °F -1.4 °F 8.6 °F 79% 29.42 in 4.0 mi NW 15.0 mph 19.6 mph 0.01 in   Mostly Cloudy
12:55 AM 14.0 °F -0.2 °F 6.8 °F 73% 29.43 in 7.0 mi WNW 12.7 mph 21.9 mph 0.01 in   Scattered Clouds
1:15 AM 12.2 °F -3.1 °F 3.2 °F 67% 29.44 in 10.0 mi WNW 13.8 mph 21.9 mph N/A   Scattered Clouds
1:35 AM 12.2 °F -3.1 °F 3.2 °F 67% 29.45 in 10.0 mi WNW 13.8 mph 21.9 mph N/A   Mostly Cloudy
1:55 AM 10.4 °F -7.2 °F 3.2 °F 73% 29.48 in 10.0 mi WNW 17.3 mph 24.2 mph N/A   Mostly Cloudy
2:15 AM 10.4 °F -4.8 °F -0.4 °F 62% 29.50 in 10.0 mi WNW 12.7 mph 20.7 mph N/A   Scattered Clouds
2:35 AM 10.4 °F -4.8 °F 1.4 °F 67% 29.51 in 10.0 mi WNW 12.7 mph 17.3 mph N/A   Overcast
2:55 AM 8.6 °F -8.3 °F -0.4 °F 67% 29.52 in 10.0 mi WNW 15.0 mph 20.7 mph N/A   Scattered Clouds
3:15 AM 8.6 °F -6.3 °F -0.4 °F 67% 29.54 in 10.0 mi WNW 11.5 mph 19.6 mph N/A   Scattered Clouds
3:35 AM 8.6 °F -6.3 °F -0.4 °F 67% 29.55 in 10.0 mi WNW 11.5 mph - N/A   Mostly Cloudy
3:55 AM 8.6 °F -6.3 °F -2.2 °F 62% 29.56 in 10.0 mi WNW 11.5 mph 18.4 mph N/A   Partly Cloudy
4:15 AM 6.8 °F -6.9 °F -2.2 °F 67% 29.57 in 10.0 mi West 9.2 mph 17.3 mph N/A   Mostly Cloudy
4:35 AM 6.8 °F -5.9 °F -2.2 °F 67% 29.59 in 10.0 mi West 8.1 mph - N/A   Scattered Clouds
4:55 AM 6.8 °F -4.8 °F -2.2 °F 67% 29.59 in 10.0 mi West 6.9 mph - N/A   Clear
5:15 AM 5.0 °F -9.1 °F -2.2 °F 72% 29.60 in 10.0 mi West 9.2 mph - N/A   Clear
5:35 AM 5.0 °F -10.0 °F -2.2 °F 72% 29.60 in 10.0 mi West 10.4 mph - N/A   Clear
5:55 AM 5.0 °F -9.1 °F -2.2 °F 72% 29.61 in 10.0 mi West 9.2 mph - N/A   Clear
6:15 AM 3.2 °F -9.1 °F -5.8 °F 66% 29.62 in 10.0 mi West 6.9 mph - N/A   Clear
6:35 AM 3.2 °F -10.3 °F -4.0 °F 72% 29.64 in 10.0 mi West 8.1 mph - N/A   Clear
6:55 AM 3.2 °F -13.1 °F -5.8 °F 66% 29.65 in 10.0 mi West 11.5 mph 17.3 mph N/A   Clear
7:15 AM 3.2 °F -13.1 °F -5.8 °F 66% 29.67 in 10.0 mi West 11.5 mph 18.4 mph N/A   Clear
7:35 AM 3.2 °F -12.2 °F -5.8 °F 66% 29.67 in 10.0 mi West 10.4 mph - N/A   Clear
7:55 AM 3.2 °F -9.1 °F -5.8 °F 66% 29.67 in 10.0 mi West 6.9 mph - N/A   Clear
8:15 AM 5.0 °F -6.9 °F -5.8 °F 61% 29.69 in 10.0 mi West 6.9 mph - N/A   Clear
8:35 AM 6.8 °F -5.9 °F -5.8 °F 56% 29.70 in 10.0 mi West 8.1 mph - N/A   Partly Cloudy
8:55 AM 6.8 °F -6.9 °F -4.0 °F 61% 29.73 in 10.0 mi West 9.2 mph - N/A   Mostly Cloudy
9:15 AM 6.8 °F -8.6 °F -2.2 °F 67% 29.74 in 10.0 mi West 11.5 mph 16.1 mph N/A   Scattered Clouds
9:35 AM 8.6 °F -7.0 °F -2.2 °F 62% 29.73 in 10.0 mi West 12.7 mph 18.4 mph N/A   Mostly Cloudy
9:55 AM 8.6 °F -7.7 °F -0.4 °F 67% 29.74 in 10.0 mi West 13.8 mph 20.7 mph N/A   Overcast
10:15 AM 8.6 °F -4.7 °F -4.0 °F 57% 29.75 in 10.0 mi West 9.2 mph 21.9 mph N/A   Overcast
10:35 AM 10.4 °F -6.6 °F -4.0 °F 52% 29.75 in 10.0 mi West 16.1 mph 23.0 mph N/A   Scattered Clouds
10:55 AM 10.4 °F -4.8 °F -5.8 °F 48% 29.75 in 10.0 mi WNW 12.7 mph 21.9 mph N/A   Clear
11:15 AM 10.4 °F -6.0 °F -5.8 °F 48% 29.74 in 10.0 mi West 15.0 mph 21.9 mph N/A   Clear
11:35 AM 10.4 °F -0.4 °F -5.8 °F 48% 29.73 in 10.0 mi West 6.9 mph 19.6 mph N/A   Clear
11:55 AM 12.2 °F -1.8 °F -5.8 °F 45% 29.73 in 10.0 mi West 11.5 mph 20.7 mph N/A   Clear
12:15 PM 12.2 °F -0.2 °F -5.8 °F 45% 29.71 in 10.0 mi West 9.2 mph - N/A   Clear
12:35 PM 12.2 °F -1.0 °F -5.8 °F 45% 29.71 in 10.0 mi West 10.4 mph 16.1 mph N/A   Clear
12:55 PM 12.2 °F 0.7 °F -5.8 °F 45% 29.71 in 10.0 mi West 8.1 mph - N/A   Clear
1:15 PM 12.2 °F -0.2 °F -4.0 °F 48% 29.69 in 10.0 mi WSW 9.2 mph - N/A   Partly Cloudy
1:35 PM 12.2 °F -0.2 °F -5.8 °F 45% 29.71 in 5.0 mi SW 9.2 mph - N/A   Scattered Clouds
1:55 PM 12.2 °F -0.2 °F -4.0 °F 48% 29.71 in 10.0 mi WSW 9.2 mph - N/A   Scattered Clouds
2:15 PM 12.2 °F -1.0 °F -2.2 °F 53% 29.71 in 10.0 mi SW 10.4 mph - N/A   Partly Cloudy
2:35 PM 12.2 °F 1.7 °F -2.2 °F 53% 29.72 in 10.0 mi SW 6.9 mph 16.1 mph N/A   Mostly Cloudy
2:55 PM 12.2 °F 4.3 °F 1.4 °F 62% 29.71 in 2.0 mi SW 4.6 mph - N/A   Overcast
3:15 PM 12.2 °F 1.7 °F 3.2 °F 67% 29.71 in 1.5 mi SW 6.9 mph - N/A   Overcast
3:35 PM 12.2 °F 1.7 °F 3.2 °F 67% 29.71 in 2.5 mi SW 6.9 mph - N/A   Mostly Cloudy
3:55 PM 12.2 °F 0.7 °F 5.0 °F 73% 29.71 in 6.0 mi SSW 8.1 mph - N/A   Scattered Clouds
4:15 PM 12.2 °F 4.3 °F 3.2 °F 67% 29.71 in 7.0 mi South 4.6 mph - N/A   Partly Cloudy
4:35 PM 12.2 °F 1.7 °F 3.2 °F 67% 29.70 in 10.0 mi SSW 6.9 mph - N/A   Mostly Cloudy
4:55 PM 12.2 °F 4.3 °F 5.0 °F 73% 29.72 in 10.0 mi South 4.6 mph - N/A   Overcast
5:15 PM 12.2 °F 0.7 °F 5.0 °F 73% 29.70 in 10.0 mi South 8.1 mph - N/A   Overcast
5:35 PM 12.2 °F 2.9 °F 3.2 °F 67% 29.70 in 10.0 mi South 5.8 mph - N/A   Overcast
5:55 PM 12.2 °F 0.7 °F 3.2 °F 67% 29.70 in 10.0 mi SSW 8.1 mph - N/A   Overcast
6:15 PM 12.2 °F 2.9 °F 3.2 °F 67% 29.70 in 10.0 mi South 5.8 mph - N/A   Overcast
6:35 PM 12.2 °F 0.7 °F 3.2 °F 67% 29.70 in 10.0 mi South 8.1 mph - N/A   Overcast
6:55 PM 14.0 °F 2.9 °F 3.2 °F 62% 29.71 in 10.0 mi South 8.1 mph - N/A   Overcast
7:15 PM 14.0 °F 2.9 °F 3.2 °F 62% 29.71 in 10.0 mi South 8.1 mph - N/A   Overcast
7:35 PM 14.0 °F 3.9 °F 3.2 °F 62% 29.71 in 10.0 mi South 6.9 mph - N/A   Overcast
7:55 PM 14.0 °F 2.0 °F 3.2 °F 62% 29.71 in 10.0 mi South 9.2 mph - N/A   Overcast
8:15 PM 14.0 °F 2.9 °F 3.2 °F 62% 29.71 in 10.0 mi South 8.1 mph - N/A   Overcast
8:35 PM 14.0 °F 3.9 °F 5.0 °F 67% 29.70 in 10.0 mi SSE 6.9 mph - N/A   Overcast
8:55 PM 15.8 °F 7.2 °F 5.0 °F 62% 29.71 in 10.0 mi South 5.8 mph - N/A   Overcast
9:15 PM 15.8 °F 7.2 °F 5.0 °F 62% 29.71 in 10.0 mi South 5.8 mph - N/A   Overcast
9:35 PM 15.8 °F - 6.8 °F 68% 29.72 in 10.0 mi Calm Calm - N/A   Overcast
9:55 PM 15.8 °F 7.2 °F 6.8 °F 68% 29.72 in 10.0 mi SSE 5.8 mph - N/A   Overcast
10:15 PM 15.8 °F 7.2 °F 6.8 °F 68% 29.72 in 10.0 mi South 5.8 mph - N/A   Overcast
10:35 PM 17.6 °F 7.3 °F 8.6 °F 68% 29.71 in 10.0 mi South 8.1 mph - N/A   Overcast
10:55 PM 17.6 °F 7.3 °F 8.6 °F 68% 29.70 in 10.0 mi SSE 8.1 mph - N/A   Overcast
11:15 PM 17.6 °F 8.2 °F 8.6 °F 68% 29.70 in 10.0 mi South 6.9 mph - N/A   Overcast
11:35 PM 17.6 °F 12.3 °F 8.6 °F 68% 29.70 in 10.0 mi South 3.5 mph - N/A   Overcast
11:55 PM 17.6 °F 12.3 °F 8.6 °F 68% 29.69 in 10.0 mi SE 3.5 mph - N/A   Overcast